Location: Antoign�
(47.0844°N, 0.1131°W)
Time: 12:31:10
(UTC+00:00)

Cosmos 1980 Rocket - Visible Passes

Search period start: 12 June 2021 00:00
Search period end: 22 June 2021 00:00
Orbit: 830 x 848 km, 71.0° (Epoch: 12 June)

Date Brightness Start Highest point End Pass type
(mag) Time Alt. Az. Time Alt. Az. Time Alt. Az.
12 Jun 3.2 21:22:49 10° SW 21:28:17 49° WNW 21:33:44 10° NNE visible
12 Jun 5.2 23:11:25 10° WNW 23:13:44 12° NNW 23:16:03 10° N visible
13 Jun 3.2 21:07:02 10° SW 21:12:32 51° WNW 21:18:01 10° NNE visible
13 Jun 5.2 22:55:24 10° WNW 22:57:56 13° NW 23:00:27 10° N visible
14 Jun 3.1 20:51:16 10° SW 20:56:47 54° WNW 21:02:19 10° NNE visible
14 Jun 5.3 22:39:24 10° WNW 22:42:07 13° NW 22:44:51 10° N visible
15 Jun 3.0 20:35:29 10° SW 20:41:03 58° WNW 20:46:35 10° NNE visible
15 Jun 5.3 22:23:25 10° WNW 22:26:20 14° NW 22:29:13 10° N visible
16 Jun 5.3 22:07:27 10° WNW 22:10:31 15° NW 22:13:36 10° N visible
17 Jun 5.3 21:51:30 10° WNW 21:54:43 15° NW 21:57:57 10° N visible
18 Jun 5.1 03:11:11 10° N 03:15:31 22° NE 03:19:49 10° E visible
18 Jun 5.4 21:35:33 10° WNW 21:38:55 16° NW 21:42:19 10° N visible
19 Jun 5.1 02:55:30 10° N 02:59:44 21° NE 03:03:56 10° E visible
19 Jun 5.4 21:19:36 10° WNW 21:23:08 17° NW 21:26:39 10° N visible
20 Jun 5.1 02:39:50 10° N 02:43:56 20° NE 02:48:02 10° E visible
20 Jun 5.4 21:03:40 10° W 21:07:20 17° NW 21:11:00 10° N visible
21 Jun 5.1 02:24:10 10° N 02:28:10 19° NE 02:32:08 10° E visible
21 Jun 5.3 20:47:45 10° W 20:51:32 18° NW 20:55:20 10° N visible
